Location: Recife
(8.0585°S, 34.8848°W)
Time: 21:07:21
(UTC-03:00)

Explorer 11/Cluster Stage 4 - Pass Details

Date: 20 April 2026
Orbit: 463 x 1174 km, 28.8° (Epoch: 16 May)

Event Time Altitude Azimuth Distance (km) Brightness Sun altitude
Rises 15:46:40 0° 320° (NW) 4,019 11.1 20.4°
Reaches altitude 10° 15:49:56 10° 329° (NNW) 3,022 10.4 19.7°
Maximum altitude 15:56:28 32° 29° (NNE) 1,739 8.4 18.1°
Drops below altitude 10° 16:02:18 10° 90° (E) 2,692 8.8 16.7°
Sets 16:05:03 0° 100° (E) 3,526 9.3 16.1°
